Location: Kalberh�ni
(46.4610°N, 7.2453°E)
Time: 02:36:46
(UTC+00:00)

BREEZE-M DEB (TANK) - Pass Details

Date: 20 June 2021
Orbit: 320 x 12038 km, 49.6° (Epoch: 25 July)

Event Time Altitude Azimuth Distance (km) Brightness Sun altitude
Rises 22:52:14 0° 273° (W) 2,347 5.5 -19.5°
Reaches altitude 10° 22:53:38 10° 278° (W) 1,702 4.8 -19.5°
Maximum altitude 22:56:59 63° 1° (N) 893 3.3 -19.6°
Drops below altitude 10° 23:06:45 10° 83° (E) 4,780 6.9 -19.9°
Sets 23:13:42 0° 86° (E) 7,484 7.9 -20.0°
